Location: Brunembert
(50.7122°N, 1.8935°E)
Time: 09:11:47
(UTC+00:00)

ATLAS 2AS CENTAUR R/B - Pass Details

Date: 22 April 2021
Orbit: 949 x 1263 km, 63.7° (Epoch: 07 May)

Event Time Altitude Azimuth Distance (km) Brightness Sun altitude
Rises 20:41:34 0° 254° (WSW) 4,215 6.3 -14.6°
Reaches altitude 10° 20:44:34 10° 260° (W) 3,247 5.7 -14.9°
Maximum altitude 20:52:04 45° 332° (NNW) 1,644 4.2 -15.8°
Drops below altitude 10° 20:59:19 10° 44° (NE) 3,134 5.2 -16.6°
Sets 21:02:10 0° 50° (NE) 4,058 5.7 -16.9°
